Louisville, KY

11:46 AM EDT on June 28, 2017 (GMT -0400)
Louisville International-Standiford

Weather History for KSDF - January, 2012

Change the Weather History Date:

Saturday, January 28, 2012

  Actual Average Record
Temperature  
Mean Temperature 39 °F 35 °F  
Max Temperature 45 °F 44 °F 69 °F (1914)
Min Temperature 32 °F 27 °F -15 °F (1963)
Degree Days  
Heating Degree Days 26 30  
Month to date heating degree days 740 840  
Since 1 July heating degree days 2075 2416  
Cooling Degree Days 0 0  
Month to date cooling degree days 0 0  
Year to date cooling degree days 0 0  
Moisture  
Dew Point 25 °F    
Average Humidity 62    
Maximum Humidity 92    
Minimum Humidity 31    
Precipitation  
Precipitation 0.01 in 0.11 in 2.10 in (1876)
Month to date precipitation 4.14 2.91  
Year to date precipitation 4.14 2.91  
Snow  
Snow 0.00 in 0.10 in 3.60 in (1895)
Month to date snowfall 1.8 3.2  
Since 1 July snowfall 1.8 6.0  
Snow Depth 0.00 in    
Sea Level Pressure  
Sea Level Pressure 30.17 in    
Wind  
Wind Speed 11 mph (WSW)    
Max Wind Speed 29 mph    
Max Gust Speed 35 mph    
Visibility 8 miles    
Events Rain    
T = Trace of Precipitation, MM = Missing Value Source: NWS Daily Summary

Daily Weather History Graph

Daily Weather History Graph

Search for Another Location

Airport or City:

Trip Planner

Search our weather history database for the weather conditions in past years. The results will help you decide how hot, cold, wet, or windy it might be!

Date:

Astronomy

Jan. 28, 2012 Rise Set
Actual Time 7:51 AM EST 6:00 PM EST
Civil Twilight 7:23 AM EST 6:28 PM EST
Nautical Twilight 6:51 AM EST 7:00 PM EST
Astronomical Twilight 6:20 AM EST 7:31 PM EST
Moon 10:19 AM EST 11:41 PM EST
Length of Visible Light 11h 05m
Length of Day
10h 09m
Waxing Crescent, 27% of the Moon is Illuminated
Jan 28
Waxing Crescent
Jan 30
First Quarter
Feb 7
Full
Feb 14
Last Quarter
Feb 21
New

Hourly Weather History & Observations

Time (EST) Temp. Windchill Dew Point Humidity Pressure Visibility Wind Dir Wind Speed Gust Speed Precip Events Conditions
12:56 AM 36.0 °F 32.1 °F 30.9 °F 82% 30.02 in 6.0 mi South 4.6 mph - N/A   Scattered Clouds
1:56 AM 36.0 °F 33.3 °F 32.0 °F 86% 30.02 in 6.0 mi South 3.5 mph - N/A   Mostly Cloudy
2:56 AM 35.1 °F 31.0 °F 32.0 °F 89% 30.01 in 5.0 mi ESE 4.6 mph - N/A   Mostly Cloudy
3:56 AM 35.1 °F 32.2 °F 32.0 °F 89% 30.00 in 5.0 mi ESE 3.5 mph - N/A   Overcast
4:56 AM 36.0 °F 31.1 °F 33.1 °F 89% 29.98 in 5.0 mi SSE 5.8 mph - N/A   Overcast
5:56 AM 37.0 °F - 34.0 °F 89% 29.97 in 5.0 mi Calm Calm - 0.00 in Rain Light Rain
6:44 AM 39.2 °F 33.0 °F 35.6 °F 87% 29.98 in 6.0 mi WSW 9.2 mph - 0.00 in Rain Light Rain
6:56 AM 39.9 °F 31.4 °F 36.0 °F 86% 30.00 in 6.0 mi West 16.1 mph 26.5 mph 0.01 in Rain Light Rain
7:56 AM 39.0 °F 31.4 °F 36.0 °F 89% 30.04 in 9.0 mi West 12.7 mph - 0.00 in Rain Light Rain
8:56 AM 39.0 °F 28.8 °F 34.0 °F 82% 30.09 in 9.0 mi WNW 21.9 mph 27.6 mph 0.00 in   Overcast
9:56 AM 39.0 °F 29.0 °F 28.9 °F 67% 30.14 in 10.0 mi WNW 20.7 mph 34.5 mph N/A   Mostly Cloudy
10:03 AM 39.2 °F 28.0 °F 26.6 °F 61% 30.14 in 10.0 mi WNW 26.5 mph 34.5 mph N/A   Scattered Clouds
10:56 AM 39.9 °F 29.5 °F 27.0 °F 60% 30.19 in 10.0 mi WNW 24.2 mph 28.8 mph N/A   Scattered Clouds
11:56 AM 42.1 °F 34.2 °F 24.1 °F 49% 30.22 in 10.0 mi WNW 16.1 mph 23.0 mph N/A   Partly Cloudy
12:56 PM 44.1 °F 37.1 °F 21.0 °F 40% 30.22 in 10.0 mi WNW 15.0 mph 21.9 mph N/A   Partly Cloudy
1:56 PM 44.6 °F 36.9 °F 19.4 °F 37% 30.22 in 10.0 mi WNW 18.4 mph 24.2 mph N/A   Partly Cloudy
2:56 PM 45.0 °F 37.4 °F 17.1 °F 33% 30.25 in 10.0 mi West 18.4 mph 25.3 mph N/A   Partly Cloudy
3:56 PM 44.1 °F 37.1 °F 16.0 °F 32% 30.27 in 10.0 mi West 15.0 mph 26.5 mph N/A   Partly Cloudy
4:56 PM 42.1 °F 33.9 °F 16.0 °F 35% 30.29 in 10.0 mi West 17.3 mph - N/A   Partly Cloudy
5:56 PM 37.9 °F 29.2 °F 17.1 °F 43% 30.31 in 10.0 mi West 15.0 mph - N/A   Partly Cloudy
6:56 PM 35.1 °F 28.6 °F 18.0 °F 50% 30.33 in 10.0 mi WNW 8.1 mph - N/A   Clear
7:56 PM 35.1 °F 28.6 °F 19.0 °F 52% 30.34 in 10.0 mi West 8.1 mph - N/A   Partly Cloudy
8:56 PM 33.1 °F 30.0 °F 19.0 °F 56% 30.33 in 10.0 mi SW 3.5 mph - N/A   Partly Cloudy
9:56 PM 34.0 °F - 18.0 °F 52% 30.33 in 10.0 mi Calm Calm - N/A   Partly Cloudy
10:56 PM 33.1 °F 28.7 °F 19.0 °F 56% 30.33 in 10.0 mi South 4.6 mph - N/A   Partly Cloudy
11:56 PM 32.0 °F 26.4 °F 19.0 °F 59% 30.32 in 10.0 mi South 5.8 mph - N/A   Partly Cloudy